Location: *
(46.3500°N, 10.9000°E)
Time: 07:34:23
(UTC+00:00)

A-11 Canister half - All Passes

Search period start: 20 April 2021 00:00
Search period end: 30 April 2021 00:00
Orbit: 1525 x 1683 km, 47.3° (Epoch: 19 April)

Date Brightness Start Highest point End Pass type
(mag) Time Alt. Az. Time Alt. Az. Time Alt. Az.
20 Apr - 13:20:13 10° SSW 13:29:00 37° SE 13:37:58 10° ENE daylight
20 Apr - 15:23:14 10° WSW 15:33:17 78° SSE 15:43:28 10° ENE daylight
20 Apr - 17:28:28 10° W 17:38:41 85° N 17:48:53 10° E daylight
20 Apr - 19:33:49 10° WNW 19:43:56 71° SSW 19:53:52 10° SE visible
20 Apr - 21:39:36 10° WNW 21:47:54 30° SW 21:56:04 10° S visible
21 Apr - 12:58:44 10° SSW 13:07:23 36° SE 13:16:13 10° ENE daylight
21 Apr - 15:01:34 10° WSW 15:11:36 77° SSE 15:21:46 10° ENE daylight
21 Apr - 17:06:45 10° W 17:16:58 85° N 17:27:11 10° E daylight
21 Apr - 19:12:07 10° WNW 19:22:15 72° SSW 19:32:15 10° SE visible
21 Apr - 21:17:49 10° WNW 21:26:18 32° SW 21:34:39 10° S visible
22 Apr - 12:37:16 10° SSW 12:45:46 34° SE 12:54:27 10° ENE daylight
22 Apr - 14:39:56 10° WSW 14:49:55 75° SSE 15:00:04 10° ENE daylight
22 Apr - 16:45:03 10° W 16:55:15 85° N 17:05:29 10° E daylight
22 Apr - 18:50:26 10° WNW 19:00:34 74° SSW 19:10:36 10° ESE visible
22 Apr - 20:56:03 10° WNW 21:04:41 33° SW 21:13:12 10° SSE visible
23 Apr - 12:15:49 10° SSW 12:24:10 32° SE 12:32:42 10° ENE daylight
23 Apr - 14:18:18 10° WSW 14:28:13 73° SSE 14:38:21 10° ENE daylight
23 Apr - 16:23:21 10° W 16:33:32 85° N 16:43:46 10° E daylight
23 Apr - 18:28:43 10° WNW 18:38:53 76° SSW 18:48:57 10° ESE visible
23 Apr - 20:34:17 10° WNW 20:43:05 35° SW 20:51:44 10° SSE visible
24 Apr - 11:54:23 10° S 12:02:34 31° SE 12:10:55 10° ENE daylight
24 Apr - 13:56:39 10° SW 14:06:33 71° SSE 14:16:39 10° ENE daylight
24 Apr - 16:01:39 10° W 16:11:49 85° N 16:22:04 10° E daylight
24 Apr - 18:07:01 10° WNW 18:17:12 77° SSW 18:27:18 10° ESE daylight
24 Apr - 20:12:33 10° WNW 20:21:27 37° SW 20:30:15 10° SSE visible
25 Apr - 11:32:59 10° S 11:40:58 29° SE 11:49:08 10° ENE daylight
25 Apr - 13:35:02 10° SW 13:44:53 70° SSE 13:54:58 10° ENE daylight
25 Apr - 15:39:57 10° W 15:50:06 85° N 16:00:21 10° E daylight
25 Apr - 17:45:20 10° WNW 17:55:31 79° SSW 18:05:38 10° ESE daylight
25 Apr - 19:50:48 10° WNW 19:59:50 38° SW 20:08:46 10° SSE visible
26 Apr - 11:11:35 10° S 11:19:23 28° SE 11:27:20 10° ENE daylight
26 Apr - 13:13:25 10° SW 13:23:12 68° SSE 13:33:14 10° ENE daylight
26 Apr - 15:18:16 10° W 15:28:23 85° N 15:38:38 10° E daylight
26 Apr - 17:23:39 10° WNW 17:33:49 81° SSW 17:43:57 10° ESE daylight
26 Apr - 19:29:03 10° WNW 19:38:13 40° SW 19:47:16 10° SSE visible
27 Apr - 10:50:12 10° S 10:57:48 26° SE 11:05:32 10° E daylight
27 Apr - 12:51:48 10° SW 13:01:32 66° SSE 13:11:32 10° ENE daylight
27 Apr - 14:56:34 10° W 15:06:40 86° N 15:16:55 10° E daylight
27 Apr - 17:01:57 10° WNW 17:12:07 82° SSW 17:22:17 10° ESE daylight
27 Apr - 19:07:20 10° WNW 19:16:35 42° SW 19:25:45 10° SSE visible
27 Apr - 21:17:03 10° WSW 21:19:29 11° WSW 21:21:56 10° SW visible
28 Apr - 10:28:51 10° S 10:36:12 25° SE 10:43:43 10° E daylight
28 Apr - 12:30:12 10° SW 12:39:53 64° SSE 12:49:50 10° ENE daylight
28 Apr - 14:34:54 10° W 14:44:57 86° N 14:55:13 10° E daylight
28 Apr - 16:40:16 10° WNW 16:50:25 83° SSW 17:00:37 10° ESE daylight
28 Apr - 18:45:36 10° WNW 18:54:57 44° SW 19:04:14 10° SSE visible
28 Apr - 20:54:31 10° W 20:57:56 12° WSW 21:01:21 10° SW visible
29 Apr - 10:07:31 10° S 10:14:37 23° SE 10:21:53 10° E daylight
29 Apr - 12:08:37 10° SW 12:18:13 62° SSE 12:28:08 10° ENE daylight
29 Apr - 14:13:12 10° W 14:23:15 87° N 14:33:29 10° E daylight
29 Apr - 16:18:35 10° WNW 16:28:43 85° SSW 16:38:55 10° ESE daylight
29 Apr - 18:23:53 10° WNW 18:33:18 45° SW 18:42:42 10° SSE daylight
29 Apr - 20:32:13 10° W 20:36:23 13° WSW 20:40:31 10° SSW visible
